Location: Kawakawa
(35.3830°S, 174.0670°E)
Time: 16:36:28
(UTC+13:00)

Transit 2A - Visible Passes

Search period start: 09 December 2019 00:00
Search period end: 19 December 2019 00:00
Orbit: 602 x 957 km, 66.7° (Epoch: 07 December)

Date Brightness Start Highest point End Pass type
(mag) Time Alt. Az. Time Alt. Az. Time Alt. Az.
09 Dec 8.8 04:51:35 10° S 04:56:49 26° SE 05:01:47 10° ENE visible
09 Dec 8.3 21:10:24 10° WNW 21:15:38 35° SW 21:21:17 10° S visible
10 Dec 9.2 04:17:57 10° S 04:22:23 19° SE 04:26:39 10° E visible
11 Dec 9.5 03:44:37 10° SSE 03:47:52 14° SE 03:51:02 10° ESE visible
11 Dec 6.6 05:25:55 10° SSW 05:32:14 79° ESE 05:38:01 10° NNE visible
11 Dec 9.7 21:49:01 10° WSW 21:51:37 13° SW 21:54:16 10° SSW visible
12 Dec 9.7 03:12:29 10° SSE 03:13:17 10° SE 03:14:04 10° SE visible
12 Dec 7.2 04:51:52 10° SSW 04:58:02 55° ESE 05:03:45 10° NE visible
12 Dec 9.4 21:13:12 10° W 21:17:04 17° SW 21:21:07 10° S visible
13 Dec 7.9 04:17:55 10° SSW 04:23:47 39° SE 04:29:13 10° ENE visible
14 Dec 8.4 03:44:05 10° S 03:49:26 28° SE 03:54:27 10° ENE visible
14 Dec 6.6 05:27:01 10° SW 05:32:54 45° WNW 05:38:18 10° N visible
15 Dec 8.8 03:10:26 10° S 03:15:01 21° SE 03:19:23 10° E visible
15 Dec 6.3 04:52:41 10° SSW 04:58:53 67° WNW 05:04:33 10° NNE visible
16 Dec 9.1 02:37:01 10° S 02:40:31 15° SE 02:43:54 10° ESE visible
16 Dec 6.4 04:18:30 10° SSW 04:24:47 85° ESE 04:30:32 10° NNE visible
17 Dec 9.3 02:04:22 10° SSE 02:05:56 11° SE 02:07:29 10° SE visible
17 Dec 6.9 03:44:25 10° SSW 03:50:37 59° ESE 03:56:17 10° NE visible
17 Dec 7.6 05:29:09 10° WSW 05:33:13 19° WNW 05:37:04 10° NW visible
18 Dec 7.5 03:10:27 10° SSW 03:16:21 41° SE 03:21:49 10° NE visible
18 Dec 7.1 04:54:14 10° SW 04:59:20 28° WNW 05:04:06 10° NNW visible
